User: anonymous   Login
Location: Caltech
(34.1382°N, 118.1253°W)
Time: 01:42:43
(UTC-07:00)
Language:

IDEFIX/ARIANE 42P - Orbit

View from above orbital plane
View from above orbital plane
View from above satellite
View from above satellite

Ground track
Ground track

The orbit data is extracted from the following two-line orbital elements,

1 27422U 02021B   14296.72683193  .00000277  00000-0  12556-3 0  6268
2 27422 098.2859 333.0144 0011955 218.2550 250.7192 14.29068305648497
Epoch (UTC): 23 October 2014 17:26:38
Eccentricity: 0.0011955
inclination: 98.2859°
perigee height: 786 km
apogee height: 803 km
right ascension of ascending node: 333.0144°
argument of perigee: 218.2550°
revolutions per day: 14.29068305
mean anomaly at epoch: 250.7192°
orbit number at epoch: 64849

The dashed part of the orbit path shows where the satellite is in the earth's shadow,  

DLR